Park Rapids, MN

8:03 AM CDT on May 28, 2017 (GMT -0500)
Park Rapids Municipal

Weather History for KPKD - March, 2014

Change the Weather History Date:

Tuesday, March 11, 2014

  Actual Average Record
Temperature  
Mean Temperature 26 °F -  
Max Temperature 35 °F 35 °F 63 °F (2016)
Min Temperature 16 °F 11 °F -21 °F (1980)
Degree Days  
Heating Degree Days 39    
Moisture  
Dew Point 20 °F    
Average Humidity 69    
Maximum Humidity 92    
Minimum Humidity 48    
Precipitation  
Precipitation 0.00 in - - ()
Sea Level Pressure  
Sea Level Pressure 29.97 in    
Wind  
Wind Speed 11 mph (NNW)    
Max Wind Speed 23 mph    
Max Gust Speed 28 mph    
Visibility 8 miles    
Events      
Averages and records for this station are not official NWS values.
T = Trace of Precipitation, MM = Missing Value Source: NWS Daily Summary

Daily Weather History Graph

Daily Weather History Graph

Search for Another Location

Airport or City:

Trip Planner

Search our weather history database for the weather conditions in past years. The results will help you decide how hot, cold, wet, or windy it might be!

Date:

Astronomy

Mar. 11, 2014 Rise Set
Actual Time 7:40 AM CDT 7:20 PM CDT
Civil Twilight 7:10 AM CDT 7:50 PM CDT
Nautical Twilight 6:35 AM CDT 8:25 PM CDT
Astronomical Twilight 5:59 AM CDT 9:01 PM CDT
Moon 2:44 PM CDT (3/11) 4:48 AM CDT (3/11)
Length of Visible Light 12h 39m
Length of Day
11h 39m
Waxing Gibbous, 78% of the Moon is Illuminated
Mar 11
Waxing Gibbous
Mar 16
Full
Mar 23
Last Quarter
Mar 30
New
Apr 7
First Quarter

Hourly Weather History & Observations

Time (CDT) Temp. Windchill Dew Point Humidity Pressure Visibility Wind Dir Wind Speed Gust Speed Precip Events Conditions
12:53 AM 33.1 °F 27.7 °F 30.9 °F 92% 29.76 in 10.0 mi NW 5.8 mph - N/A   Scattered Clouds
1:53 AM 32.0 °F 26.4 °F 30.0 °F 92% 29.77 in 10.0 mi NW 5.8 mph - N/A   Clear
2:53 AM 32.0 °F 26.4 °F 28.9 °F 88% 29.77 in 10.0 mi NNW 5.8 mph - N/A   Clear
3:53 AM 32.0 °F 27.5 °F 28.0 °F 85% 29.78 in 10.0 mi NNW 4.6 mph - N/A   Clear
4:53 AM 30.0 °F 25.2 °F 28.0 °F 92% 29.80 in 10.0 mi NNW 4.6 mph - N/A   Clear
5:53 AM 33.1 °F 26.1 °F 27.0 °F 78% 29.81 in 10.0 mi North 8.1 mph - N/A   Clear
6:53 AM 32.0 °F 23.6 °F 26.1 °F 79% 29.84 in 10.0 mi North 10.4 mph - N/A   Clear
7:53 AM 30.9 °F 20.7 °F 24.1 °F 76% 29.88 in 10.0 mi North 13.8 mph - N/A   Clear
8:53 AM 30.9 °F 21.2 °F 21.9 °F 69% 29.92 in 10.0 mi North 12.7 mph - N/A   Clear
9:53 AM 30.9 °F 21.2 °F 19.0 °F 61% 29.94 in 10.0 mi North 12.7 mph - N/A   Clear
10:53 AM 32.0 °F 21.6 °F 18.0 °F 56% 29.96 in 10.0 mi NNW 15.0 mph - N/A   Clear
11:53 AM 34.0 °F 26.6 °F 18.0 °F 52% 29.98 in 10.0 mi North 9.2 mph - N/A   Clear
12:53 PM 34.0 °F 23.4 °F 18.0 °F 52% 29.99 in 10.0 mi North 17.3 mph - N/A   Clear
1:53 PM 34.0 °F 22.7 °F 18.0 °F 52% 30.00 in 10.0 mi North 19.6 mph 25.3 mph N/A   Clear
2:53 PM 33.1 °F 20.6 °F 17.1 °F 52% 30.01 in 10.0 mi NNW 23.0 mph 27.6 mph N/A   Clear
3:53 PM 34.0 °F 23.0 °F 16.0 °F 48% 30.01 in 10.0 mi North 18.4 mph 27.6 mph N/A   Clear
4:53 PM 30.9 °F 18.7 °F 18.0 °F 59% 30.04 in 3.0 mi NNW 19.6 mph - N/A   Haze
5:24 PM 28.9 °F 16.5 °F 18.0 °F 64% 30.00 in 1.8 mi NNW 18.4 mph - N/A   Haze
5:34 PM 28.9 °F 17.3 °F 18.0 °F 64% 30.00 in 2.5 mi NNW 16.1 mph - N/A   Haze
5:49 PM 28.4 °F 15.8 °F 17.6 °F 64% 30.00 in 7.0 mi NW 18.4 mph - N/A   Overcast
5:53 PM 28.0 °F 14.9 °F 17.1 °F 63% 30.06 in 6.0 mi NNW 19.6 mph - N/A   Haze
6:53 PM 26.1 °F 12.7 °F 16.0 °F 66% 30.10 in 3.0 mi NNW 18.4 mph 25.3 mph N/A   Haze
7:53 PM 24.1 °F 10.6 °F 12.9 °F 62% 30.12 in 5.0 mi NW 17.3 mph 26.5 mph N/A   Haze
8:53 PM 21.9 °F 8.7 °F 10.9 °F 63% 30.14 in 6.0 mi NNW 15.0 mph - N/A   Haze
9:53 PM 19.9 °F 7.9 °F 12.9 °F 74% 30.15 in 10.0 mi NW 11.5 mph - N/A   Clear
10:53 PM 18.0 °F 4.8 °F 12.0 °F 78% 30.17 in 10.0 mi NW 12.7 mph - N/A   Partly Cloudy
11:53 PM 16.0 °F 2.3 °F 10.0 °F 77% 30.17 in 4.0 mi NW 12.7 mph - N/A   Haze